TimeEST,TemperatureF,Dew PointF,Humidity,Sea Level PressureIn,VisibilityMPH,Wind Direction,Wind SpeedMPH,Gust SpeedMPH,PrecipitationIn,Events,Conditions,WindDirDegrees,DateUTC
12:52 AM,19.9,10.9,68,30.53,10.0,Calm,Calm,-,N/A,,Mostly Cloudy,0,2013-11-25 05:52:00
1:52 AM,19.9,12.0,71,30.51,10.0,SSE,3.5,-,N/A,,Mostly Cloudy,160,2013-11-25 06:52:00
2:52 AM,19.9,12.9,74,30.50,10.0,SSE,5.8,-,N/A,,Overcast,160,2013-11-25 07:52:00
3:52 AM,21.9,12.0,66,30.48,10.0,SSE,9.2,-,N/A,,Overcast,160,2013-11-25 08:52:00
4:52 AM,21.9,12.9,68,30.45,10.0,SSE,10.4,-,N/A,,Overcast,160,2013-11-25 09:52:00
5:52 AM,23.0,12.9,65,30.43,10.0,SE,5.8,-,N/A,,Overcast,140,2013-11-25 10:52:00
6:52 AM,23.0,12.0,63,30.42,10.0,SSE,9.2,-,N/A,,Overcast,160,2013-11-25 11:52:00
7:52 AM,21.0,12.0,68,30.42,10.0,SE,4.6,-,N/A,,Mostly Cloudy,140,2013-11-25 12:52:00
8:52 AM,25.0,12.9,60,30.41,10.0,SSE,8.1,-,N/A,,Mostly Cloudy,150,2013-11-25 13:52:00
9:52 AM,28.0,12.9,53,30.40,10.0,South,8.1,-,N/A,,Overcast,180,2013-11-25 14:52:00
10:52 AM,30.9,12.9,47,30.36,10.0,South,6.9,-,N/A,,Mostly Cloudy,180,2013-11-25 15:52:00
11:52 AM,35.1,12.0,39,30.32,10.0,SSW,10.4,-,N/A,,Mostly Cloudy,210,2013-11-25 16:52:00
12:52 PM,37.0,15.1,41,30.29,10.0,SSW,11.5,18.4,N/A,,Overcast,200,2013-11-25 17:52:00
1:52 PM,39.0,16.0,39,30.26,10.0,SSW,10.4,-,N/A,,Overcast,210,2013-11-25 18:52:00
2:52 PM,39.9,16.0,38,30.25,10.0,SW,9.2,-,N/A,,Overcast,220,2013-11-25 19:52:00
3:52 PM,39.9,16.0,38,30.26,10.0,WSW,4.6,-,N/A,,Overcast,240,2013-11-25 20:52:00
4:52 PM,37.9,16.0,41,30.27,10.0,SSW,8.1,-,N/A,,Overcast,210,2013-11-25 21:52:00
5:52 PM,37.9,17.1,43,30.27,10.0,SW,6.9,-,N/A,,Overcast,220,2013-11-25 22:52:00
6:52 PM,37.0,18.0,46,30.25,10.0,SSW,5.8,-,N/A,,Overcast,200,2013-11-25 23:52:00
7:52 PM,37.0,18.0,46,30.26,10.0,SSW,6.9,-,N/A,,Overcast,210,2013-11-26 00:52:00
8:52 PM,37.0,21.9,54,30.25,10.0,SSW,8.1,-,0.00,,Overcast,200,2013-11-26 01:52:00
9:52 PM,35.1,27.0,72,30.24,9.0,SSW,8.1,-,0.00,Snow,Light Snow,200,2013-11-26 02:52:00
10:39 PM,33.8,28.4,81,30.21,2.5,SSW,5.8,-,0.00,Snow,Light Snow,210,2013-11-26 03:39:00
10:52 PM,33.1,30.0,89,30.22,1.5,SSW,4.6,-,0.00,Snow,Light Snow,210,2013-11-26 03:52:00
11:25 PM,32.0,30.2,93,30.20,1.8,Calm,Calm,-,0.01,Snow,Light Snow,0,2013-11-26 04:25:00
11:52 PM,32.0,30.9,96,30.20,1.8,Calm,Calm,-,0.01,Snow,Light Snow,0,2013-11-26 04:52:00